Regional Weather Roundup
Issued by NWS

Home | Current Version | Previous Version | Text Only | Print | Product List | Glossary On
Versions: 1 2 3 4 5 6 7 8 9 10 11 12 13 14 15 16 17 18 19 20 21 22 23 24 25 26 27 28 29 30 31 32 33 34 35 36 37 38 39 40 41 42 43 44 45 46 47 48 49 50
000
ASUS45 KTFX 260210
RWRMT
MONTANA REGIONAL WEATHER ROUNDUP
NATIONAL WEATHER SERVICE GREAT FALLS MT
800 PM MDT SAT MAR 25 2017

NOTE: "FAIR" INDICATES FEW OR NO CLOUDS BELOW 12000 FEET WITH NO
SIGNIFICANT WEATHER AND/OR OBSTRUCTIONS TO VISIBILITY.

MTZ001>007-043-260300-
WEST OF THE DIVIDE

CITY           SKY/WX    TMP DP  RH WIND       PRES   REMARKS
KALISPELL      CLOUDY    44  29  55 SW7       29.96R
MISSOULA       CLOUDY    44  33  65 NW12      30.00R
BUTTE          CLOUDY    43  20  39 W8        29.92R
MULLAN PASS    CLOUDY    27  26  96 VRB5      29.94S
ANACONDA         N/A     39  21  48 W5        29.93R
DEER LODGE       N/A     43  27  52 NW15      29.95R
EUREKA           N/A     43  25  49 SE6       29.95S
HAMILTON         N/A     46  27  46 SE3       29.97R
RONAN            N/A     42  34  73 SE5       30.03R
$$

MTZ008-052>055-260300-
SOUTHWEST MONTANA

CITY           SKY/WX    TMP DP  RH WIND       PRES   REMARKS
BOZEMAN        CLOUDY    48  27  44 CALM      29.90R
DILLON         MOCLDY    43  18  36 W6        29.90R
W YELLOWSTONE  CLOUDY    34  28  80 W7        29.96R WCI  28
ENNIS          MOCLDY    43  23  45 SE3       29.95R
$$

MTZ009-010-012-014-046-048-049-054-260300-
EAST SLOPES AND CENTRAL MONTANA

CITY           SKY/WX    TMP DP  RH WIND       PRES   REMARKS
CUT BANK       CLEAR     39  25  57 SW15      29.89R WCI  31
GREAT FALLS    MOCLDY    45  19  35 W9        29.89R
MALMSTROM AFB  MOCLDY    50  19  29 W9        29.90R
HELENA         CLOUDY    48  23  37 NW9       29.90R
AUGUSTA          N/A     40  22  50 W13       29.90R
BOWMANS CRNR     N/A     40  22  49 NW15      29.89R
CHOTEAU          N/A     41  21  45 NW7       29.91R
CONRAD           N/A     44  28  53 W13       29.92S
FAIRFIELD        N/A     43  23  45 SW13      29.88R
POWER            N/A     41  20  43 NW8       29.89R
RAYNESFORD       N/A     39  22  49 SW9       29.90R
$$

MTZ011-013-016-021-045-047-050-051-260300-
NORTH CENTRAL MONTANA

CITY           SKY/WX    TMP DP  RH WIND       PRES   REMARKS
HAVRE          CLOUDY    49  26  41 SW6       29.86R
LEWISTOWN      MOCLDY    46  20  35 NW5       29.89R
N BAR RANCH    MOCLDY    45  21  39 W3        29.92R
CHINOOK          N/A     52  19  28 CALM      29.86R
DENTON           N/A     49  20  32 CALM      29.86R
FORT BENTON      N/A     48  19  32 MISG      29.88S
GEYSER           N/A     41  22  46 SW9       29.89R
GRASS RANGE    CLOUDY    49  20  32 NW3       29.86R
STANFORD       MOCLDY    42  22  44 NW6       29.90R
WINIFRED       MOCLDY    47  18  30 NW7       29.88R
$$

MTZ017>020-022>027-061-062-260300-
NORTHEAST MONTANA

CITY           SKY/WX    TMP DP  RH WIND       PRES   REMARKS
GLASGOW        PTCLDY    50  27  40 E3        29.87S
JORDAN           N/A     49  29  46 CALM      29.88R
SIDNEY         CLOUDY    51  32  48 CALM      29.88S
WOLF POINT     CLOUDY    51  32  48 W5        29.88S
MALTA          PTCLDY    50  27  40 CALM      29.86S
PLENTYWOOD       N/A     48  32  53 N7        29.88R
POPLAR           N/A     52  30  43 W3        29.88S
SCOBEY           N/A     48  25  41 CALM      29.88
$$

MTZ028>42-056>058-260300-
SOUTHCENTRAL AND SOUTHEAST MONTANA

CITY           SKY/WX    TMP DP  RH WIND       PRES   REMARKS
BAKER          CLOUDY    49  33  54 NW8       29.91R
BILLINGS       MOCLDY    50  24  36 SW6       29.90S
LIVINGSTON     PTCLDY    41  32  70 S7        29.91R
MILES CITY     CLOUDY    51  33  50 SW6       29.90S
BIG TIMBER     PTCLDY    41  36  81 S7        29.95R
FORSYTH          N/A     52  34  50 CALM      29.90S
HARLOWTON      MOCLDY    44  32  63 SW12      29.90R
LAUREL           N/A     47  26  44 W2        29.91S
$$

REGIONAL REPORTS...DAKOTAS

CITY           SKY/WX    TMP DP  RH WIND       PRES   REMARKS
WILLISTON      CLOUDY    53  30  41 S5        29.87S
MINOT          CLOUDY    47  37  68 S9        29.88R
DICKINSON      CLOUDY    49  28  44 N5        29.87S
BEACH            N/A    N/A N/A N/A MISG        N/A
TIOGA            N/A     46  32  57 S7        29.89R
WATFORD CITY     N/A     48  36  61 CALM      29.88S
BISMARCK       CLOUDY    47  35  63 SE8       29.92R
GRAND FORKS    CLOUDY    34  33  96 S8        30.02S WCI  27
FARGO          CLOUDY    34  31  88 CALM      30.03S
BUFFALO SD       N/A     53  32  44 N14       29.82R
RAPID CITY     CLOUDY    53  35  50 N12       29.81R
$$

REGIONAL REPORTS...WYOMING/IDAHO/WASHINGTON

CITY           SKY/WX    TMP DP  RH WIND       PRES   REMARKS
GILLETTE       CLOUDY    47  34  60 N10       29.87R
SHERIDAN       LGT RAIN  42  40  92 NW7       29.94R
BUFFALO WY     LGT RAIN  41  38  89 NW10      29.92R
CODY           CLOUDY    42  29  59 NW6       29.93R
YELLOWSTONE LA   N/A     31  21  66 CALM      29.97R
IDAHO FALLS    CLEAR     46  30  53 S10       29.95R
SALMON         MOCLDY    46  25  42 CALM      29.92R
BOISE          CLEAR     52  28  39 NW6       30.00R
SPOKANE        PTCLDY    47  30  51 S9          N/A
$$

REGIONAL REPORTS...ALBERTA

CITY           SKY/WX    TMP DP  RH WIND       PRES   REMARKS
EDMONTON       CLEAR     37  32  81 E3        29.74R
CALGARY        PTCLDY    43  10  26 W14G25    29.75R
LETHBRIDGE     PTCLDY    43  18  36 W15       29.83R
MEDICINE HAT   PTCLDY    46  21  36 SW12      29.80R
WATERTON GATE    N/A     37  23  56 SW12G17     N/A  WCI  30
CARDSTON         N/A     39  21  48 S7          N/A
MILK RIVER       N/A     41  23  48 W9          N/A
$$

REGIONAL REPORTS...SASKATCHEWAN

CITY           SKY/WX    TMP DP  RH WIND       PRES   REMARKS
SWIFT CURRENT  CLOUDY    45  28  53 S9        29.81R
REGINA         MOCLDY    43  36  75 S2        29.86R
SASKATOON      MOCLDY    32  30  93 N6        29.85R WCI  26
CYPRESS HILLS    N/A     41  12  30 W6          N/A
VAL MARIE        N/A     41  27  56 S1          N/A
ROCKGLEN         N/A     46  23  39 E2          N/A
ASSINIBOIA       N/A     36  30  80 SE5         N/A
$$



USA.gov is the U.S. government's official web portal to all federal, state and local government web resources and services.